Tracking 30509 objects as of 21-May-2025
HD Live streaming from Space Station
objects crossing your sky now

LEMUR 2 JK0903EM1407

Track LEMUR 2 JK0903EM1407 now!
10-day predictions
LEMUR 2 JK0903EM1407 is classified as:


NORAD ID: 58336
Int'l Code: 2023-174CJ
Perigee: 463.5 km
Apogee: 475.8 km
Inclination: 97.4 °
Period: 93.8 minutes
Semi major axis: 6840 km
RCS: Unknown
Launch date: November 11, 2023
Source: United States (US)
Launch site: AIR FORCE WESTERN TEST RANGE (AFWTR)

Uplink (MHz):
Downlink (MHz): 402.790/2022.500/2200.500/2440.000
Beacon (MHz):
Mode: GMSK
Call sign:
Status: Inactive

Your satellite tracking list
Your tracking list is empty




NASA's NSSDC Master Catalog

Two Line Element Set (TLE):
1 58336U 23174CJ  25140.73291106  .00012786  00000-0  38470-3 0  9992
2 58336  97.4156 220.4507 0009016  95.3761 264.8511 15.34467472 85256
Source of the keplerian elements: AFSPC